Location: Bo?a Wola
(50.4192°N, 19.7966°E)
Time: 00:09:00
(UTC+00:00)

Cosmos 372 Rocket - Visible Passes

Search period start: 16 September 2024 00:00
Search period end: 26 September 2024 00:00
Orbit: 735 x 764 km, 74.1° (Epoch: 15 September)

Date Brightness Start Highest point End Pass type
(mag) Time Alt. Az. Time Alt. Az. Time Alt. Az.
16 Sep 7.0 17:44:29 10° WNW 17:47:19 15° W 17:50:10 10° SW visible
19 Sep 7.3 17:19:04 10° WNW 17:21:17 13° W 17:23:31 10° WSW visible
24 Sep 7.4 03:28:10 10° ESE 03:29:43 11° E 03:31:15 10° ENE visible
